Regional Weather Roundup
Issued by NWS Albany, NY

Home | Current Version | Previous Version | Text Only | Print | Product List | Glossary On
Versions: 1 2 3 4 5 6 7 8 9 10 11 12 13 14 15 16 17 18 19 20 21 22 23 24 25 26 27 28 29 30 31 32 33 34 35 36 37 38 39 40 41 42 43 44 45 46 47 48 49 50
000
ASUS41 KALY 202310
RWRALY

NEW YORK STATE HOURLY WEATHER ROUNDUP
NATIONAL WEATHER SERVICE ALBANY NY
600 PM EST THU NOV 20 2014

NOTE: "FAIR" INDICATES FEW OR NO CLOUDS BELOW 12,000 FEET WITH NO
SIGNIFICANT WEATHER AND/OR NO OBSTRUCTIONS TO VISIBILITY.

NYZ032-033-038>043-046>054-057>066-NYZ062>081-210000-
EAST


CITY           SKY/WX    TMP DP  RH WIND       PRES   REMARKS
ALBANY         LGT SNOW  28  20  71 NW16      29.91R VSB 1   WCI  16
GLENS FALLS    CLEAR     29  11  47 SW6       29.87R WCI  23
POUGHKEEPSIE   CLEAR     37  12  35 W8G18     29.89R WCI  31
NEWBURGH       CLEAR     34  14  44 NW14      29.88R WCI  24
MONTGOMERY     CLEAR     35  11  36 W12G21    29.88R WCI  27
WHITE PLAINS   CLEAR     39  12  33 W13       29.87R WCI  31
ISLIP          CLEAR     42  21  43 W14G22    29.87R
NEW YORK CITY  PTCLDY    43  16  33 W21       29.90R
CENTRAL PARK   CLEAR     42  15  33 W9G22     29.92R
$$

NYZ005>009-017-018-044>046-055-056-210000-
CENTRAL


CITY           SKY/WX    TMP DP  RH WIND       PRES   REMARKS
FULTON         CLOUDY    28  11  48 SW17      29.88R WCI  16
SYRACUSE       CLOUDY    26  20  77 SW10      29.90R WCI  16
ROME           LGT SNOW  25  20  81 SW13G20   29.91R WCI  14
ELMIRA         PTCLDY    28   8  43 W17G23    29.90R WCI  16
BINGHAMTON     PTCLDY    25   7  46 W10       29.84R WCI  15
MONTICELLO     PTCLDY    28   9  43 W8        29.85R WCI  20
$$

NYZ026>034-041>043-210000-
NORTH


CITY           SKY/WX    TMP DP  RH WIND       PRES   REMARKS
WATERTOWN      PTCLDY    30  13  49 W18G31    29.83R WCI  18
FORT DRUM      NOT AVBL
MASSENA        CLEAR     27  11  51 SW13      29.78R WCI  16
SARANAC LAKE   CLOUDY    21  16  81 SW13G21   29.71R WCI   9
PLATTSBURGH    PTCLDY    28  15  58 SW8G18    29.79R WCI  20
$$

NYZ001>004-010>016-019>021-210000-
WEST


CITY           SKY/WX    TMP DP  RH WIND       PRES   REMARKS
NIAGARA FALLS  PTCLDY    22  13  68 W20       29.91R WCI   7
BUFFALO        MOCLDY    23  13  65 W15       29.91R WCI  10
DUNKIRK        SNOW      22  21  96 SW18      29.93R VSB 1/2 WCI   7
JAMESTOWN      CLOUDY    21   9  58 SW16G26   29.87S WCI   7
WELLSVILLE     PTCLDY    20   6  55 W14G26    29.85R WCI   7
ROCHESTER      LGT SNOW  25  19  78 W14G24    29.92R WCI  13
PENN YAN       CLOUDY    27  17  66 VRB7      29.89R WCI  19
$$

             KEY
       WCI = WIND CHILL INDEX
       VSB = VISIBILITY
       HX  = HEAT INDEX
$$


USA.gov is the U.S. government's official web portal to all federal, state and local government web resources and services.